• Em Portugal
  • Lista de países
  • Para 7 dias
  • Temperatura da água
  • Mapas de satélite
  • Mapa do tempo
  • Widgets de tempo
  • user-avatar
    Iniciar Sessão

    Previsão horária em Fontvieille

    Hoje, 19 Fevereiro, Segunda-feira

    Tempo Temperatura Precipitação Vento Pressão Humidade
    00:00 +5°C° 0 mm 6 m/s 757 mmHg 69%
    01:00 +5°C° 0,1 mm 6 m/s 757 mmHg 70%
    02:00 +5°C° 0,1 mm 5 m/s 757 mmHg 71%
    03:00 +5°C° 0,1 mm 5 m/s 757 mmHg 73%
    04:00 +5°C° 0 mm 5 m/s 757 mmHg 72%
    05:00 +5°C° 0 mm 5 m/s 757 mmHg 72%
    06:00 +5°C° 0 mm 4 m/s 757 mmHg 72%
    07:00 +6°C° 0 mm 4 m/s 757 mmHg 67%
    08:00 +7°C° 0 mm 4 m/s 757 mmHg 63%
    09:00 +9°C° 0 mm 3 m/s 757 mmHg 59%
    10:00 +10°C° 0 mm 3 m/s 757 mmHg 58%
    11:00 +11°C° 0 mm 3 m/s 756 mmHg 57%
    12:00 +12°C° 0 mm 3 m/s 756 mmHg 56%
    13:00 +11°C° 0 mm 3 m/s 756 mmHg 60%
    14:00 +11°C° 0 mm 3 m/s 755 mmHg 64%
    15:00 +10°C° 0 mm 3 m/s 755 mmHg 68%
    16:00 +9°C° 0,1 mm 2 m/s 755 mmHg 74%
    17:00 +8°C° 0,1 mm 2 m/s 755 mmHg 80%
    18:00 +7°C° 0,1 mm 2 m/s 755 mmHg 86%
    19:00 +7°C° 0,1 mm 2 m/s 755 mmHg 87%
    20:00 +8°C° 0,1 mm 1 m/s 755 mmHg 88%
    21:00 +7°C° 0,1 mm 1 m/s 754 mmHg 88%
    22:00 +7°C° 0,1 mm 1 m/s 754 mmHg 88%
    23:00 +7°C° 0,1 mm 1 m/s 754 mmHg 87%

    Amanhã, 20 Fevereiro, Terça-feira

    Tempo Temperatura Precipitação Vento Pressão Humidade
    00:00 +6°C° 0,1 mm 2 m/s 754 mmHg 86%
    01:00 +6°C° 0,1 mm 2 m/s 753 mmHg 86%
    02:00 +6°C° 0,1 mm 2 m/s 753 mmHg 86%
    03:00 +6°C° 0,1 mm 2 m/s 752 mmHg 86%
    04:00 +5°C° 0,1 mm 3 m/s 752 mmHg 86%
    05:00 +5°C° 0,1 mm 3 m/s 752 mmHg 87%
    06:00 +4°C° 0,1 mm 3 m/s 752 mmHg 87%
    07:00 +7°C° 0 mm 3 m/s 751 mmHg 81%
    08:00 +8°C° 0 mm 3 m/s 751 mmHg 75%
    09:00 +9°C° 0 mm 3 m/s 751 mmHg 69%
    10:00 +9°C° 0 mm 3 m/s 751 mmHg 67%
    11:00 +10°C° 0 mm 3 m/s 751 mmHg 65%
    12:00 +10°C° 0 mm 3 m/s 751 mmHg 63%
    13:00 +10°C° 0,1 mm 3 m/s 750 mmHg 65%
    14:00 +10°C° 0,1 mm 3 m/s 750 mmHg 67%
    15:00 +9°C° 0,1 mm 2 m/s 749 mmHg 69%
    16:00 +8°C° 0,1 mm 2 m/s 750 mmHg 74%
    17:00 +7°C° 0,1 mm 2 m/s 750 mmHg 79%
    18:00 +6°C° 0,1 mm 2 m/s 750 mmHg 83%
    19:00 +6°C° 0 mm 2 m/s 750 mmHg 80%
    20:00 +6°C° 0 mm 2 m/s 750 mmHg 77%
    21:00 +4°C° 0 mm 3 m/s 751 mmHg 75%
    22:00 +4°C° 0,1 mm 3 m/s 751 mmHg 72%
    23:00 +4°C° 0,1 mm 4 m/s 751 mmHg 70%

    Depois de amanhã, 21 Fevereiro, Quarta-feira

    Tempo Temperatura Precipitação Vento Pressão Humidade
    00:00 +3°C° 0,1 mm 4 m/s 751 mmHg 68%
    01:00 +2°C° 0,1 mm 5 m/s 751 mmHg 69%
    02:00 +2°C° 0,1 mm 5 m/s 750 mmHg 70%
    03:00 +2°C° 0,1 mm 6 m/s 750 mmHg 71%
    04:00 +2°C° 0 mm 6 m/s 750 mmHg 71%
    05:00 +2°C° 0 mm 6 m/s 750 mmHg 71%
    06:00 +2°C° 0 mm 7 m/s 750 mmHg 71%
    07:00 +3°C° 0 mm 7 m/s 750 mmHg 66%
    08:00 +4°C° 0 mm 7 m/s 751 mmHg 62%
    09:00 +5°C° 0 mm 7 m/s 751 mmHg 57%
    10:00 +6°C° 0 mm 7 m/s 751 mmHg 54%
    11:00 +8°C° 0 mm 7 m/s 751 mmHg 51%
    12:00 +9°C° 0 mm 6 m/s 751 mmHg 48%
    13:00 +9°C° 0 mm 6 m/s 750 mmHg 48%
    14:00 +9°C° 0 mm 5 m/s 750 mmHg 47%
    15:00 +9°C° 0 mm 5 m/s 750 mmHg 47%
    16:00 +7°C° 0 mm 5 m/s 750 mmHg 52%
    17:00 +6°C° 0 mm 5 m/s 750 mmHg 57%
    18:00 +5°C° 0 mm 4 m/s 750 mmHg 61%
    19:00 +3°C° 0 mm 5 m/s 750 mmHg 62%
    20:00 +3°C° 0 mm 5 m/s 750 mmHg 62%
    21:00 +3°C° 0 mm 5 m/s 750 mmHg 62%
    22:00 +3°C° 0 mm 5 m/s 750 mmHg 62%
    23:00 +3°C° 0 mm 5 m/s 749 mmHg 62%

    22 Fevereiro, Quinta-feira

    Tempo Temperatura Precipitação Vento Pressão Humidade
    00:00 +4°C° 0 mm 4 m/s 749 mmHg 62%
    01:00 +4°C° 0 mm 4 m/s 748 mmHg 61%
    02:00 +4°C° 0 mm 4 m/s 748 mmHg 61%
    03:00 +4°C° 0 mm 4 m/s 747 mmHg 61%
    04:00 +4°C° 0 mm 4 m/s 747 mmHg 61%
    05:00 +4°C° 0 mm 4 m/s 747 mmHg 60%
    06:00 +4°C° 0 mm 4 m/s 747 mmHg 60%
    07:00 +3°C° 0 mm 5 m/s 747 mmHg 59%
    08:00 +5°C° 0 mm 5 m/s 747 mmHg 58%
    09:00 +6°C° 0 mm 5 m/s 747 mmHg 57%
    10:00 +7°C° 0,1 mm 5 m/s 747 mmHg 56%
    11:00 +7°C° 0,1 mm 5 m/s 747 mmHg 55%
    12:00 +8°C° 0,1 mm 5 m/s 747 mmHg 54%
    13:00 +8°C° 0,1 mm 5 m/s 747 mmHg 56%
    14:00 +7°C° 0,1 mm 6 m/s 746 mmHg 58%
    15:00 +7°C° 0,1 mm 6 m/s 746 mmHg 60%
    16:00 +5°C° 0,1 mm 6 m/s 747 mmHg 64%
    17:00 +5°C° 0,1 mm 6 m/s 747 mmHg 68%
    18:00 +5°C° 0,1 mm 5 m/s 747 mmHg 71%
    19:00 +3°C° 0,1 mm 5 m/s 747 mmHg 72%
    20:00 +3°C° 0,1 mm 5 m/s 748 mmHg 72%
    21:00 +3°C° 0,1 mm 5 m/s 748 mmHg 73%
    22:00 +3°C° 0 mm 5 m/s 748 mmHg 73%
    23:00 +3°C° 0 mm 5 m/s 748 mmHg 73%

    23 Fevereiro, Sexta-feira

    Tempo Temperatura Precipitação Vento Pressão Humidade
    00:00 +3°C° 0 mm 5 m/s 748 mmHg 72%
    01:00 +2°C° 0 mm 5 m/s 748 mmHg 72%
    02:00 +2°C° 0 mm 5 m/s 748 mmHg 72%
    03:00 +2°C° 0 mm 5 m/s 748 mmHg 72%
    04:00 +2°C° 0 mm 5 m/s 748 mmHg 72%
    05:00 +2°C° 0 mm 5 m/s 748 mmHg 71%
    06:00 +2°C° 0 mm 5 m/s 748 mmHg 70%
    07:00 +3°C° 0 mm 5 m/s 748 mmHg 67%
    08:00 +5°C° 0 mm 5 m/s 748 mmHg 63%
    09:00 +7°C° 0 mm 5 m/s 749 mmHg 59%
    10:00 +7°C° 0 mm 4 m/s 749 mmHg 57%
    11:00 +8°C° 0 mm 4 m/s 748 mmHg 56%
    12:00 +10°C° 0 mm 4 m/s 748 mmHg 54%
    13:00 +10°C° 0,1 mm 4 m/s 748 mmHg 55%
    14:00 +10°C° 0,1 mm 4 m/s 748 mmHg 56%
    15:00 +9°C° 0,1 mm 5 m/s 748 mmHg 58%
    16:00 +8°C° 0,1 mm 5 m/s 749 mmHg 63%
    17:00 +7°C° 0,1 mm 5 m/s 749 mmHg 68%
    18:00 +6°C° 0,1 mm 5 m/s 749 mmHg 73%
    19:00 +5°C° 0,1 mm 5 m/s 750 mmHg 74%
    20:00 +5°C° 0,1 mm 5 m/s 751 mmHg 75%
    21:00 +5°C° 0,1 mm 4 m/s 751 mmHg 76%
    22:00 +5°C° 0 mm 4 m/s 752 mmHg 76%
    23:00 +4°C° 0 mm 4 m/s 752 mmHg 76%

    24 Fevereiro, Sábado

    Tempo Temperatura Precipitação Vento Pressão Humidade
    00:00 +4°C° 0 mm 4 m/s 752 mmHg 76%
    01:00 +4°C° 0 mm 4 m/s 752 mmHg 74%
    02:00 +3°C° 0 mm 4 m/s 753 mmHg 71%
    03:00 +3°C° 0 mm 4 m/s 753 mmHg 69%
    04:00 +3°C° 0 mm 4 m/s 753 mmHg 67%
    05:00 +3°C° 0 mm 4 m/s 753 mmHg 66%
    06:00 +2°C° 0 mm 5 m/s 754 mmHg 65%
    07:00 +5°C° 0 mm 4 m/s 754 mmHg 61%
    08:00 +7°C° 0 mm 4 m/s 754 mmHg 57%
    09:00 +10°C° 0 mm 4 m/s 755 mmHg 53%
    10:00 +11°C° 0 mm 4 m/s 755 mmHg 53%
    11:00 +11°C° 0 mm 4 m/s 755 mmHg 54%
    12:00 +12°C° 0 mm 4 m/s 755 mmHg 54%
    13:00 +12°C° 0 mm 4 m/s 755 mmHg 56%
    14:00 +11°C° 0 mm 4 m/s 754 mmHg 59%
    15:00 +11°C° 0 mm 4 m/s 754 mmHg 61%
    16:00 +10°C° 0 mm 4 m/s 754 mmHg 68%
    17:00 +8°C° 0 mm 3 m/s 754 mmHg 75%
    18:00 +7°C° 0 mm 3 m/s 754 mmHg 81%
    19:00 +7°C° 0 mm 3 m/s 754 mmHg 81%
    20:00 +5°C° 0 mm 3 m/s 754 mmHg 82%
    21:00 +5°C° 0 mm 3 m/s 755 mmHg 82%
    22:00 +5°C° 0,1 mm 4 m/s 754 mmHg 82%
    23:00 +5°C° 0,1 mm 4 m/s 754 mmHg 82%
    Mostrar mais